User: anonymous   Login
Location: Newark
(22.3060°N, 114.2134°E)
Time: 00:13:59
(UTC+00:00)
Language:

Explorer 11/Cluster Stage 4 - Orbit

View from above orbital plane
View from above orbital plane
View from above satellite
View from above satellite

Ground track
Ground track

The orbit data is extracted from the following two-line orbital elements,

1 00107U 61013A   21209.57451237  .00000568  00000-0  53773-4 0  9995
2 00107  28.7914  47.3208 0545516 214.6216 141.7658 14.09269145 23562
Epoch (UTC): 28 July 2021 13:47:17
Eccentricity: 0.0545516
inclination: 28.7914°
perigee height: 467 km
apogee height: 1257 km
right ascension of ascending node: 47.3208°
argument of perigee: 214.6216°
revolutions per day: 14.09269145
mean anomaly at epoch: 141.7658°
orbit number at epoch: 2356

The dashed part of the orbit path shows where the satellite is in the earth's shadow,  

DLR